Wind_Speed
8 9 10 10 10 10 10 10 10 9 9 8 7 6 6 5 4 3 3 2 2 2 1 2 2 2 2 2 3 3 5 5 5 6 7 7 8 8 8 8 8 9 9
8 8 8 9 10 10 10 10 9 9 9 8 7 6 5 5 4 3 4 3 2 2 3 2 3 3 2 2 3 4 5 7 6 7 7 8 8 8 9 9 8 9 10
9 8 8 8 8 9 10 10 10 9 9 8 8 7 6 5 4 4 4 3 3 3 4 4 4 4 4 4 4 5 5 6 7 7 7 8 8 8 9 9 9 10 11
10 9 8 8 7 8 9 10 10 9 9 9 8 8 7 6 5 4 4 4 4 4 5 4 4 4 4 5 5 6 7 7 7 8 8 8 8 8 9 10 11 11 11
12 11 9 8 8 9 9 9 10 9 9 9 9 8 7 7 7 5 5 5 5 5 5 5 6 5 5 6 6 7 8 9 9 9 9 9 9 9 10 11 12 12 12
14 13 11 10 10 10 10 9 10 10 11 10 10 9 8 8 7 7 6 6 6 7 6 7 7 7 7 7 8 9 9 10 10 10 11 11 11 11 11 12 12 12 13
16 15 13 12 11 11 11 10 10 10 10 10 10 10 9 9 9 8 8 8 8 8 8 8 8 9 9 10 10 10 11 11 11 11 12 12 13 12 12 12 12 12 13
17 16 15 14 14 13 13 12 11 11 11 11 11 11 11 11 11 10 11 11 10 10 10 10 10 10 11 12 11 11 11 12 13 13 13 13 13 13 13 14 14 14 14
19 18 17 17 17 16 15 14 13 13 13 13 13 12 12 12 13 13 13 13 13 13 12 12 12 12 12 13 13 12 13 13 13 13 13 13 14 14 14 15 15 16 16
20 20 20 19 19 18 18 17 15 15 14 15 15 15 15 15 16 16 15 15 15 15 15 14 14 14 14 15 15 14 14 15 15 15 15 15 15 15 16 16 17 17 17
21 23 22 21 19 18 18 17 17 17 16 16 17 17 17 17 18 18 18 17 18 18 17 16 15 15 16 16 16 16 16 16 17 16 16 16 17 17 17 17 17 18 18
23 24 22 21 21 21 21 19 19 19 19 18 18 19 19 19 20 20 20 19 20 20 20 18 17 18 18 18 19 19 18 18 18 18 18 18 19 19 19 19 19 19 19
23 24 24 23 23 23 22 22 21 21 21 21 20 20 21 21 22 22 22 22 23 23 22 20 19 20 20 20 21 21 20 20 20 20 20 21 20 21 21 21 22 22 22
25 25 26 26 26 25 24 25 24 23 23 23 23 23 23 23 24 24 24 25 25 25 24 23 22 23 23 22 22 23 23 23 23 23 23 23 23 23 23 24 24 24 24
28 27 28 28 28 27 26 26 27 26 26 26 25 25 26 27 26 26 26 27 28 27 25 25 26 26 25 25 25 26 26 26 26 26 25 26 26 26 26 26 26 26 26
30 29 30 30 30 29 28 28 28 28 28 28 28 28 27 28 28 28 28 28 29 28 27 27 26 27 27 28 28 28 28 29 29 28 28 28 28 29 29 28 28 28 28
30 31 31 31 31 31 30 30 31 30 30 30 30 30 30 29 29 29 29 30 30 29 29 29 30 29 28 29 29 30 31 31 31 31 30 30 30 31 30 29 29 29 29
32 32 31 32 32 33 33 33 32 33 32 32 32 33 33 31 31 31 32 32 32 32 32 32 32 30 30 31 32 32 33 33 34 33 33 32 32 32 32 31 30 30 30
34 34 34 33 34 34 34 35 35 36 34 33 33 33 33 33 34 34 34 34 34 34 34 34 32 32 31 32 33 34 34 34 34 34 34 34 34 34 33 33 32 31 31
36 37 36 34 35 35 35 36 36 36 36 35 35 35 35 36 36 36 35 36 36 35 35 34 34 34 33 33 34 36 35 35 36 35 36 36 36 37 36 34 33 33 33
36 36 36 35 35 36 37 37 37 37 37 37 37 37 37 38 38 38 37 37 38 38 37 36 37 36 35 35 35 36 36 37 37 37 37 37 37 37 36 35 34 34 33
37 36 37 37 37 38 38 38 38 38 38 39 39 38 39 39 39 39 39 38 37 39 38 37 37 37 36 36 37 37 38 39 38 38 38 37 37 37 36 36 35 34 34
37 37 36 36 37 38 39 39 39 40 40 40 40 40 40 39 39 40 39 40 39 38 39 37 37 36 37 38 38 38 39 39 39 39 39 38 37 37 36 36 36 35 35
36 36 36 36 37 38 39 39 40 40 40 40 40 41 40 40 40 40 40 41 40 39 39 37 37 38 39 39 39 39 38 39 39 40 40 40 39 38 37 37 37 37 37
35 35 36 37 37 38 39 40 40 40 41 41 41 41 42 42 42 41 41 41 41 40 39 38 38 38 39 39 39 39 39 40 40 40 40 40 39 39 39 39 39 39 39
35 36 37 38 38 38 38 39 39 40 41 41 41 42 42 42 43 42 42 41 41 41 39 39 39 39 39 40 40 40 40 41 41 40 39 38 38 38 38 37 37 38 38
Wind_Direction
7 11 16 17 17 18 21 24 25 25 25 24 26 25 26 34 33 27 21 15 6 347 305 307 326 301 282 276 266 258 263 261 255 255 258 258 259 259 257 257 260 261 263
353 358 1 7 10 9 11 12 12 12 12 13 14 15 14 10 10 8 8 356 317 304 313 300 307 303 296 289 280 276 272 270 272 269 264 265 264 260 260 259 263 268 268
331 343 344 350 358 360 360 2 2 360 359 360 4 1 354 356 1 356 351 337 313 309 316 319 317 302 299 288 283 282 283 287 288 280 270 273 271 266 264 263 262 266 270
307 320 329 329 336 344 349 352 352 351 353 352 349 351 346 341 342 335 331 331 322 312 313 317 321 312 300 297 295 293 291 293 291 287 285 281 276 272 270 266 267 272 272
293 301 310 314 315 322 332 342 346 348 349 346 341 338 338 335 333 327 325 322 322 317 311 302 308 308 303 301 301 300 296 293 289 288 288 287 287 282 278 274 272 272 268
285 287 294 300 303 307 313 321 330 335 337 337 338 335 331 328 326 324 325 324 319 317 313 303 296 298 299 297 301 301 295 292 292 293 290 288 286 283 284 281 275 273 271
275 277 279 288 292 297 300 304 310 316 322 323 328 327 322 322 320 319 319 317 316 313 306 305 299 298 298 300 301 295 293 294 295 296 294 289 284 281 283 283 279 278 278
270 276 277 279 281 285 292 296 298 301 305 310 314 317 315 311 313 313 314 314 312 309 304 302 301 299 297 297 296 293 297 297 297 297 295 292 288 284 286 287 286 287 285
267 272 272 275 279 277 280 285 290 293 294 298 302 305 308 307 310 309 306 309 310 309 305 300 295 294 293 294 293 293 294 295 294 293 295 294 289 284 284 288 289 288 286
268 270 270 272 277 274 274 279 282 287 290 292 294 296 298 301 302 305 304 303 305 307 306 301 295 293 292 290 289 289 288 291 293 293 293 292 289 286 285 286 287 287 286
268 271 271 268 273 277 277 276 279 283 286 288 291 291 292 295 298 298 297 298 303 304 301 296 293 294 294 290 289 287 286 287 289 291 291 290 288 287 286 285 285 285 285
266 270 271 267 266 271 276 275 277 277 280 284 286 288 288 289 291 293 293 293 295 298 297 292 285 286 290 290 290 288 285 284 285 287 287 286 286 284 284 284 284 283 283
263 268 271 272 269 266 268 271 274 274 275 278 280 284 286 289 290 289 289 289 290 291 290 286 281 281 283 286 286 286 285 284 284 285 285 285 286 285 285 285 284 283 283
262 265 267 269 270 270 268 269 271 276 277 276 277 280 283 285 287 288 287 288 288 288 286 281 280 280 280 283 285 284 283 282 283 284 283 283 284 286 286 284 283 282 282
263 264 266 268 270 271 273 273 273 276 278 278 277 278 279 280 283 286 285 285 287 287 284 282 280 280 280 282 283 282 280 280 281 282 282 281 283 284 283 281 281 282 281
265 266 265 265 265 268 270 271 273 275 276 277 278 276 278 279 283 284 284 283 285 285 285 284 284 281 280 282 282 281 279 279 279 280 280 280 283 285 283 281 280 281 281
266 267 266 264 263 264 265 267 269 272 274 275 276 277 279 278 279 282 284 283 285 285 286 287 284 282 281 280 279 279 279 278 279 278 278 279 281 283 282 281 281 280 280
267 266 266 265 264 263 264 266 268 271 271 272 275 278 280 279 281 284 284 284 285 284 285 285 284 282 281 280 278 278 278 279 279 279 278 279 280 281 280 279 280 279 279
265 264 264 266 265 264 264 265 267 270 273 272 274 277 279 281 282 282 283 282 282 282 283 284 282 283 284 283 281 280 278 278 278 278 278 279 279 279 279 278 277 278 279
263 263 265 265 264 264 265 266 269 269 271 272 273 276 278 280 281 282 282 282 282 281 282 282 280 282 283 284 283 280 278 278 278 278 278 278 278 278 278 277 276 277 278
263 264 264 264 263 264 266 267 268 270 271 272 274 276 278 279 281 282 282 283 282 280 280 280 279 280 282 283 282 281 280 279 278 278 277 277 277 276 276 276 275 276 278
264 264 264 264 264 265 266 267 268 270 271 272 275 277 278 280 280 280 281 281 281 279 279 278 278 277 279 281 281 281 280 279 278 277 276 275 275 274 274 274 274 276 277
264 263 263 263 264 265 266 267 268 270 271 272 274 275 277 279 280 280 280 280 282 281 279 277 276 276 277 279 280 282 280 277 277 277 275 274 273 272 272 272 274 275 277
263 262 263 264 264 266 266 266 268 269 271 272 274 275 276 277 278 279 280 280 280 281 280 278 277 276 276 277 279 281 281 279 278 277 276 274 273 272 271 272 274 275 277
264 263 264 265 266 266 267 267 268 270 270 271 273 273 274 276 277 279 280 279 279 280 279 277 276 276 276 277 279 280 280 279 278 277 276 274 274 273 273 273 273 274 276
265 266 267 267 267 267 268 269 270 271 271 271 272 273 273 275 277 278 278 278 278 279 279 277 276 275 275 276 278 280 280 279 278 276 275 274 274 275 274 273 273 275 276
Height
5895 5894 5892 5891 5890 5889 5888 5887 5886 5885 5884 5883 5882 5882 5882 5881 5882 5882 5882 5882 5882 5882 5882 5883 5883 5883 5884 5884 5884 5885 5885 5886 5886 5887 5887 5888 5888 5889 5889 5889 5889 5890 5890
5895 5894 5893 5892 5891 5890 5889 5888 5887 5886 5885 5884 5884 5883 5883 5882 5882 5882 5883 5883 5883 5883 5883 5883 5883 5883 5884 5884 5884 5884 5884 5885 5885 5886 5886 5886 5887 5887 5887 5887 5887 5888 5888
5895 5894 5893 5892 5892 5891 5890 5889 5888 5887 5886 5885 5884 5884 5883 5883 5883 5883 5883 5883 5883 5883 5883 5883 5883 5883 5884 5884 5884 5884 5883 5884 5884 5884 5884 5884 5885 5885 5885 5885 5885 5886 5885
5894 5893 5892 5892 5891 5891 5890 5889 5888 5887 5886 5885 5885 5884 5884 5883 5883 5883 5883 5883 5883 5883 5883 5883 5883 5883 5883 5883 5883 5883 5883 5882 5882 5882 5882 5882 5882 5882 5883 5883 5883 5883 5883
5892 5891 5891 5891 5890 5890 5889 5889 5888 5886 5885 5885 5884 5883 5883 5883 5883 5882 5882 5882 5882 5882 5882 5882 5882 5882 5882 5882 5882 5881 5881 5881 5881 5880 5880 5880 5880 5880 5880 5880 5880 5880 5880
5890 5889 5889 5889 5889 5888 5888 5888 5887 5886 5885 5885 5884 5883 5883 5882 5882 5882 5881 5881 5881 5881 5881 5881 5880 5881 5880 5880 5880 5880 5880 5879 5879 5879 5878 5878 5878 5878 5877 5877 5877 5877 5877
5888 5887 5887 5887 5886 5886 5886 5886 5886 5885 5885 5884 5883 5883 5882 5882 5881 5881 5880 5880 5880 5879 5879 5879 5878 5878 5878 5878 5878 5878 5877 5877 5877 5876 5876 5875 5875 5875 5875 5874 5874 5873 5873
5884 5884 5883 5883 5884 5883 5883 5883 5883 5883 5883 5883 5882 5882 5881 5880 5879 5879 5879 5878 5878 5877 5877 5876 5876 5876 5876 5876 5875 5875 5875 5875 5874 5873 5873 5872 5871 5871 5871 5871 5871 5870 5870
5881 5880 5880 5880 5880 5880 5880 5880 5880 5881 5881 5880 5880 5879 5879 5878 5877 5876 5877 5876 5876 5875 5874 5873 5873 5873 5873 5873 5872 5872 5872 5872 5871 5870 5870 5869 5868 5868 5868 5868 5867 5867 5866
5877 5876 5876 5877 5876 5876 5876 5877 5877 5877 5877 5877 5876 5876 5876 5876 5875 5874 5874 5874 5873 5872 5871 5870 5870 5870 5869 5869 5869 5868 5868 5868 5867 5867 5866 5865 5865 5864 5864 5864 5863 5863 5862
5873 5872 5872 5872 5871 5871 5872 5872 5872 5872 5872 5872 5872 5872 5872 5872 5872 5871 5870 5870 5869 5868 5868 5867 5866 5866 5865 5865 5864 5864 5864 5864 5863 5863 5862 5861 5861 5860 5860 5859 5859 5858 5858
5868 5867 5866 5867 5866 5867 5867 5866 5866 5867 5868 5868 5868 5868 5868 5868 5867 5867 5866 5865 5865 5864 5862 5862 5861 5861 5861 5860 5860 5860 5859 5859 5859 5858 5858 5857 5856 5856 5855 5854 5854 5853 5853
5863 5862 5861 5862 5862 5862 5863 5862 5860 5861 5862 5862 5862 5863 5863 5862 5862 5861 5861 5860 5859 5858 5857 5856 5856 5856 5856 5856 5855 5855 5854 5854 5853 5853 5853 5852 5852 5851 5850 5849 5849 5848 5848
5855 5857 5856 5856 5856 5856 5857 5857 5856 5855 5855 5856 5856 5857 5857 5856 5856 5855 5854 5854 5853 5852 5851 5850 5850 5850 5850 5850 5849 5849 5849 5848 5848 5847 5847 5846 5846 5845 5844 5844 5843 5842 5842
5848 5849 5850 5850 5851 5851 5851 5851 5850 5850 5850 5850 5850 5849 5850 5849 5849 5848 5848 5847 5846 5845 5844 5844 5844 5844 5844 5843 5843 5842 5842 5842 5841 5841 5840 5840 5839 5838 5837 5837 5836 5836 5835
5840 5841 5842 5843 5843 5844 5844 5844 5844 5844 5844 5843 5843 5842 5842 5841 5841 5841 5840 5839 5838 5838 5838 5837 5837 5836 5836 5836 5836 5835 5834 5834 5834 5833 5833 5832 5832 5831 5830 5829 5829 5828 5828
5832 5833 5834 5835 5835 5836 5836 5836 5836 5837 5836 5836 5835 5835 5834 5834 5834 5833 5833 5832 5831 5831 5831 5830 5829 5828 5828 5828 5827 5827 5826 5826 5825 5825 5824 5824 5824 5823 5822 5821 5821 5820 5819
5824 5825 5826 5826 5827 5828 5828 5828 5828 5828 5827 5827 5828 5827 5827 5826 5825 5825 5825 5824 5824 5823 5823 5822 5821 5821 5820 5819 5819 5818 5817 5816 5816 5816 5816 5815 5815 5814 5813 5813 5813 5812 5811
5815 5816 5816 5817 5818 5818 5819 5819 5819 5819 5818 5819 5820 5820 5819 5818 5818 5818 5817 5816 5815 5815 5814 5812 5812 5812 5811 5810 5809 5808 5808 5807 5807 5807 5806 5806 5806 5805 5804 5804 5804 5803 5802
5805 5806 5807 5808 5809 5809 5809 5810 5810 5810 5811 5811 5811 5811 5810 5810 5809 5808 5807 5806 5806 5805 5805 5803 5803 5802 5802 5801 5800 5799 5797 5797 5797 5797 5796 5796 5795 5795 5794 5794 5794 5793 5793
5795 5796 5797 5799 5799 5800 5800 5800 5801 5801 5801 5801 5801 5801 5800 5799 5799 5798 5798 5797 5796 5795 5795 5795 5794 5793 5792 5791 5790 5788 5787 5787 5786 5786 5786 5785 5784 5784 5784 5784 5783 5783 5783
5785 5786 5787 5789 5790 5790 5790 5791 5791 5791 5791 5792 5791 5791 5791 5790 5789 5788 5788 5787 5785 5783 5783 5783 5783 5782 5781 5781 5779 5778 5777 5776 5775 5775 5774 5774 5774 5774 5773 5773 5773 5772 5772
5775 5776 5777 5778 5779 5780 5780 5781 5781 5781 5781 5781 5781 5781 5780 5779 5778 5778 5777 5776 5775 5774 5773 5772 5772 5771 5771 5770 5769 5768 5766 5765 5764 5763 5763 5763 5762 5762 5762 5762 5762 5762 5761
5765 5765 5767 5768 5768 5769 5769 5770 5770 5770 5770 5770 5770 5769 5769 5768 5767 5767 5766 5765 5764 5763 5762 5761 5761 5760 5760 5759 5758 5756 5755 5754 5753 5752 5752 5751 5751 5751 5751 5751 5751 5750 5750
5754 5755 5756 5757 5758 5758 5759 5759 5759 5759 5759 5759 5759 5758 5758 5757 5757 5756 5754 5753 5753 5752 5751 5750 5749 5749 5748 5747 5746 5745 5744 5743 5742 5741 5740 5740 5739 5739 5739 5739 5739 5739 5738
5744 5745 5746 5746 5747 5747 5748 5748 5748 5747 5747 5747 5747 5747 5746 5746 5745 5744 5743 5742 5741 5740 5739 5738 5738 5737 5737 5736 5735 5733 5732 5731 5729 5728 5728 5727 5727 5727 5726 5726 5727 5727 5726